Toms River, NJ

6:37 PM EDT on October 22, 2019 (GMT -0400)
Miller

Weather History for KMJX - August, 2019

Change the Weather History Date:

Monday, August 12, 2019

  Actual Average Record
Temperature  
Mean Temperature 72 °F -  
Max Temperature 89 °F 84 °F 98 °F (2016)
Min Temperature 55 °F 62 °F 49 °F (1968)
Cooling Degree Days 7    
Growing Degree Days 22 (Base 50)    
Moisture  
Dew Point 63 °F    
Average Humidity 56    
Maximum Humidity 100    
Minimum Humidity 38    
Precipitation  
Precipitation 0.04 in - - ()
Sea Level Pressure  
Sea Level Pressure 29.99 in    
Wind  
Wind Speed 4 mph (SW)    
Max Wind Speed 12 mph    
Max Gust Speed -    
Visibility 10 miles    
Events      
Averages and records for this station are not official NWS values.
T = Trace of Precipitation, MM = Missing Value Source: NWS Daily Summary

Daily Weather History Graph

Daily Weather History Graph

Search for Another Location

Airport or City:

Astronomy

Aug. 12, 2019 Rise Set
Actual Time 6:05 AM EDT 7:57 PM EDT
Civil Twilight 5:36 AM EDT 8:27 PM EDT
Nautical Twilight 5:00 AM EDT 9:02 PM EDT
Astronomical Twilight 4:22 AM EDT 9:40 PM EDT
Moon 6:25 PM EDT (8/12) 3:12 AM EDT (8/12)
Length of Visible Light 14h 50m
Length of Day
13h 52m
Waxing Gibbous, 93% of the Moon is Illuminated
Aug 12
Waxing Gibbous
Aug 15
Full
Aug 23
Last Quarter
Aug 30
New
Sep 5
First Quarter

Hourly Weather History & Observations

Time (EDT) Temp. Heat Index Dew Point Humidity Pressure Visibility Wind Dir Wind Speed Gust Speed Precip Events Conditions
12:56 AM 57.0 °F - - N/A% 30.04 in 10.0 mi Calm Calm - 0.01 in   Clear
1:56 AM 57.9 °F - - N/A% 30.04 in 10.0 mi Calm Calm - N/A   Clear
2:56 AM 57.0 °F - - N/A% 30.04 in 10.0 mi Calm Calm - N/A   Clear
3:56 AM 55.9 °F - - N/A% 30.04 in 10.0 mi Calm Calm - N/A   Clear
4:56 AM 55.9 °F - - N/A% 30.04 in 10.0 mi SW 3.5 mph - N/A   Clear
5:56 AM 57.0 °F - - N/A% 30.04 in 10.0 mi Calm Calm - N/A   Clear
6:56 AM 60.1 °F - - N/A% 30.04 in 10.0 mi Calm Calm - 0.01 in   Clear
7:56 AM 70.0 °F - - N/A% 30.05 in 10.0 mi WSW 4.6 mph - N/A   Clear
8:56 AM 77.0 °F - 64.9 °F 66% 30.04 in 10.0 mi WSW 4.6 mph - N/A   Clear
9:56 AM 82.0 °F 82.7 °F 61.0 °F 49% 30.04 in 10.0 mi WSW 6.9 mph - N/A   Clear
10:56 AM 84.0 °F 83.8 °F 59.0 °F 43% 30.03 in 10.0 mi West 8.1 mph - N/A   Clear
11:56 AM 84.9 °F 84.4 °F 59.0 °F 41% 30.02 in 10.0 mi WSW 9.2 mph - N/A   Unknown
12:56 PM 86.0 °F 85.7 °F 60.1 °F 41% 30.01 in 10.0 mi WNW 11.5 mph - N/A   Scattered Clouds
1:56 PM 87.1 °F 86.7 °F 60.1 °F 40% 29.99 in 10.0 mi Variable 4.6 mph - N/A   Scattered Clouds
2:56 PM 88.0 °F 87.6 °F 60.1 °F 39% 29.96 in 10.0 mi West 10.4 mph - N/A   Clear
3:56 PM 89.1 °F 88.8 °F 60.1 °F 38% 29.95 in 10.0 mi WSW 8.1 mph - N/A   Clear
4:56 PM 88.0 °F 87.6 °F 60.1 °F 39% 29.92 in 10.0 mi WNW 10.4 mph - N/A   Clear
5:56 PM 86.0 °F 86.8 °F 63.0 °F 46% 29.92 in 10.0 mi WSW 8.1 mph - N/A   Partly Cloudy
6:56 PM 82.0 °F 84.1 °F 66.0 °F 58% 29.92 in 10.0 mi SSW 9.2 mph - N/A   Scattered Clouds
7:56 PM 77.0 °F - 64.0 °F 64% 29.93 in 7.0 mi South 9.2 mph - N/A   Clear
8:56 PM 75.0 °F - 64.0 °F 69% 29.93 in 10.0 mi SSW 8.1 mph - N/A   Clear
9:56 PM 73.9 °F - 66.0 °F 76% 29.93 in 10.0 mi South 5.8 mph - 0.01 in   Partly Cloudy
10:56 PM 73.9 °F - 72.0 °F 93% 29.92 in 10.0 mi South 5.8 mph - N/A   Mostly Cloudy
11:56 PM 73.9 °F - 73.9 °F 100% 29.92 in 10.0 mi SSW 6.9 mph - 0.01 in   Clear